Nueva Ocotepeque, Honduras

8:11 PM CST on December 15, 2017 (GMT -0600)
Nueva Ocotepeque

Weather History for MHSC - September, 2013

Change the Weather History Date:

Saturday, September 28, 2013

  Actual Average (MHSR) Record (MHSR)
Temperature  
Mean Temperature 76 °F -  
Max Temperature 86 °F 77 °F 85 °F (2017)
Min Temperature 66 °F 63 °F 60 °F (2000)
Cooling Degree Days 11    
Growing Degree Days 26 (Base 50)    
Moisture  
Dew Point 70 °F    
Average Humidity 92    
Maximum Humidity 100    
Minimum Humidity 55    
Precipitation  
Precipitation 0.24 in - - ()
Sea Level Pressure  
Sea Level Pressure 29.95 in    
Wind  
Wind Speed 3 mph ()    
Max Wind Speed 9 mph    
Max Gust Speed 16 mph    
Visibility 6.2 miles    
Events Rain , Thunderstorm    
Averages and records for this station are not official NWS values.
T = Trace of Precipitation, MM = Missing Value Source: Averaged Metar Reports

Daily Weather History Graph

Daily Weather History Graph

Search for Another Location

Airport or City:

Trip Planner

Search our weather history database for the weather conditions in past years. The results will help you decide how hot, cold, wet, or windy it might be!

Date:

Astronomy

Sep. 28, 2013 Rise Set
Actual Time 5:46 AM CST 5:48 PM CST
Civil Twilight 5:24 AM CST 6:09 PM CST
Nautical Twilight 5:00 AM CST 6:34 PM CST
Astronomical Twilight 4:35 AM CST 6:59 PM CST
Moon 12:22 AM CST (9/28) 1:21 PM CST (9/28)
Length of Visible Light 12h 44m
Length of Day
12h 02m
Waning Crescent, 35% of the Moon is Illuminated
Sep 28
Waning Crescent
Oct 4
New
Oct 11
First Quarter
Oct 18
Full
Oct 26
Last Quarter

Hourly Weather History & Observations

Time (CST) Temp. Heat Index Dew Point Humidity Pressure Visibility Wind Dir Wind Speed Gust Speed Precip Events Conditions
12:58 AM 70.0 °F - 67.5 °F 92% 29.85 in 6.2 mi NNE 1.2 mph - N/A   Partly Cloudy
1:58 AM 67.6 °F - 67.3 °F 99% 29.86 in 6.2 mi Calm Calm - N/A   Scattered Clouds
2:58 AM 68.5 °F - 68.0 °F 98% 29.85 in 6.2 mi NNE 2.3 mph - N/A   Partly Cloudy
3:58 AM 68.2 °F - 68.0 °F 99% 29.86 in 6.2 mi NNW 2.3 mph - N/A   Clear
4:41 AM 68.0 °F - 68.0 °F 100% 29.98 in 6.2 mi SE 2.3 mph - N/A Rain Light Rain
4:46 AM 68.0 °F - 68.0 °F 100% 29.98 in 6.2 mi SE 1.2 mph - N/A Rain Light Rain
4:56 AM 68.0 °F - 68.0 °F 100% 29.98 in 6.2 mi SE 3.5 mph - N/A   Light Drizzle
4:58 AM 68.2 °F - 68.0 °F 99% 29.87 in 6.2 mi SE 3.5 mph - 0.00 in   Light Drizzle
5:02 AM 68.0 °F - 68.0 °F 100% 29.98 in 6.2 mi SSE 2.3 mph - N/A   Overcast
5:16 AM 68.0 °F - 68.0 °F 100% 29.98 in 6.2 mi ESE 2.3 mph - N/A Rain Light Rain
5:34 AM 69.8 °F - 68.0 °F 94% 29.99 in 6.2 mi East 2.3 mph - N/A   Mostly Cloudy
5:44 AM 68.0 °F - 68.0 °F 100% 29.99 in 6.2 mi SE 2.3 mph - N/A   Mostly Cloudy
5:58 AM 68.5 °F - 68.2 °F 99% 29.89 in 6.2 mi South 3.5 mph - 0.00 in   Mostly Cloudy
6:00 AM 67 °F - 67 °F 100% 29.90 in 2 mi Calm Calm - -   Mist
6:33 AM 68.0 °F - 68.0 °F 100% 30.01 in 6.2 mi Calm Calm - N/A   Overcast
6:38 AM 69.8 °F - 68.0 °F 94% 30.01 in 6.2 mi NE 1.2 mph - N/A   Overcast
6:58 AM 69.8 °F - 69.6 °F 99% 29.92 in 6.2 mi Calm Calm - N/A   Overcast
7:18 AM 71.6 °F - 68.0 °F 88% 30.02 in 6.2 mi Calm Calm - N/A   Scattered Clouds
7:58 AM 73.9 °F - 69.8 °F 87% 29.92 in 6.2 mi West 2.3 mph - N/A   Clear
8:58 AM 77.9 °F - 72.1 °F 82% 29.92 in 6.2 mi Variable 4.6 mph - N/A   Clear
9:00 AM 79 °F - 70 °F 68% 29.89 in 6 mi Calm Calm - -   Haze
9:58 AM 81.3 °F 85.9 °F 72.3 °F 74% 29.91 in 6.2 mi NNW 5.8 mph - N/A   Partly Cloudy
10:58 AM 83.8 °F 88.6 °F 70.9 °F 65% 29.88 in 6.2 mi Variable 1.2 mph - N/A   Partly Cloudy
11:58 AM 86.4 °F 90.0 °F 68.5 °F 55% 29.85 in 6.2 mi NW 8.1 mph - N/A   Scattered Clouds
12:00 PM 83 °F - 70 °F 56% 29.88 in 6 mi South 4.6 mph - -   Haze
12:58 PM - - - N/A% - - North - - N/A   Mostly Cloudy
1:08 PM 86.0 °F 89.4 °F 68.0 °F 55% 29.93 in 6.2 mi NNW 9.2 mph - N/A   Mostly Cloudy
1:58 PM - - - N/A% - - North - - N/A   Mostly Cloudy
2:07 PM 78.8 °F - 68.0 °F 69% 29.92 in 6.2 mi SSE 4.6 mph 16.1 mph N/A   Mostly Cloudy
2:09 PM 78.8 °F - 68.0 °F 69% 29.92 in 5.6 mi SE 9.2 mph 16.1 mph N/A Rain , Thunderstorm Light Rain Showers
2:10 PM - - - N/A% - - North - - N/A   Mostly Cloudy
2:58 PM - - - N/A% - - North - - N/A   Mostly Cloudy
3:00 PM 80 °F - 71 °F 66% 29.82 in 10 mi South 2.3 mph - - Thunderstorm Thunderstorm
3:06 PM - - - N/A% 29.94 in - SSE 4.6 mph - N/A Thunderstorm Thunderstorm
3:09 PM 73.4 °F - 71.6 °F 94% 29.94 in 5.0 mi SE 3.5 mph - N/A Rain , Thunderstorm Thunderstorms and Rain
3:10 PM 73.4 °F - 71.6 °F 94% 29.93 in - SSE 3.5 mph - N/A Thunderstorm Thunderstorm
3:18 PM 73.4 °F - 71.6 °F 94% 29.93 in 6.2 mi SE 3.5 mph - N/A Rain , Thunderstorm Light Thunderstorms and Rain
3:25 PM 73.4 °F - 71.6 °F 94% 29.93 in 6.2 mi SE 6.9 mph - N/A Rain , Thunderstorm Light Thunderstorms and Rain
3:33 PM 73.4 °F - 71.6 °F 94% 29.93 in 6.2 mi SSE 6.9 mph - N/A Thunderstorm Light Drizzle
3:34 PM 73.4 °F - 71.6 °F 94% 29.93 in 6.2 mi SSE 6.9 mph - N/A Thunderstorm Overcast
3:42 PM 73.4 °F - 71.6 °F 94% 29.93 in 6.2 mi SE 5.8 mph - N/A Rain , Thunderstorm Light Rain
3:58 PM 73.6 °F - 71.6 °F 93% 29.85 in 6.2 mi East 6.9 mph - 0.04 in Thunderstorm Light Drizzle
4:00 PM 73.4 °F - 71.6 °F 94% 29.94 in 6.2 mi East 6.9 mph - N/A   Overcast
4:03 PM 73.4 °F - 71.6 °F 94% 29.94 in 6.2 mi East 8.1 mph - N/A Rain Light Rain
4:39 PM 73.4 °F - 71.6 °F 94% 29.94 in 6.2 mi East 3.5 mph - N/A Rain , Thunderstorm Light Thunderstorms and Rain
4:49 PM 73.4 °F - 71.6 °F 94% 29.95 in 6.2 mi East 3.5 mph - N/A Thunderstorm Thunderstorm
4:54 PM 73.4 °F - 71.6 °F 94% 29.95 in 6.2 mi East 4.6 mph - N/A   Scattered Clouds
4:58 PM 73.4 °F - 72.5 °F 97% 29.86 in 6.2 mi East 3.5 mph - 0.05 in   Scattered Clouds
5:16 PM 73.4 °F - 71.6 °F 94% 29.96 in 6.2 mi East 5.8 mph - N/A Rain Light Rain
5:45 PM 73.4 °F - 71.6 °F 94% 29.97 in 6.2 mi South 2.3 mph - N/A   Scattered Clouds
5:58 PM 72.3 °F - 72.0 °F 99% 29.89 in 6.2 mi Calm Calm - 0.02 in   Partly Cloudy
6:00 PM 67 °F - 67 °F 99% 29.91 in 6 mi Calm Calm - - Thunderstorm Thunderstorm
6:58 PM 72.0 °F - 71.8 °F 99% 29.92 in 6.2 mi North 4.6 mph - N/A   Mostly Cloudy
7:58 PM 72.5 °F - 71.8 °F 98% 29.92 in 6.2 mi NE 4.6 mph - N/A   Mostly Cloudy
8:41 PM 71.6 °F - 71.6 °F 100% 30.06 in 6.2 mi WNW 4.6 mph - N/A Rain Rain
8:58 PM 71.6 °F - 71.2 °F 99% 29.95 in 6.2 mi NNW 5.8 mph - 0.00 in Thunderstorm Light Drizzle
8:59 PM 71.6 °F - 71.6 °F 100% 30.06 in 6.2 mi NW 5.8 mph - N/A Thunderstorm Overcast
9:50 PM 69.8 °F - 69.8 °F 100% 30.08 in 6.2 mi NW 4.6 mph - N/A   Light Drizzle
9:58 PM 69.6 °F - 69.4 °F 99% 29.97 in 6.2 mi NW 3.5 mph - 0.01 in   Light Drizzle
10:15 PM 68.0 °F - 68.0 °F 100% 30.08 in 6.2 mi NE 2.3 mph - N/A Rain , Thunderstorm Light Thunderstorms and Rain
10:20 PM 68.0 °F - 68.0 °F 100% 30.08 in 6.2 mi ESE 3.5 mph - N/A Rain , Thunderstorm Light Thunderstorms and Rain
10:30 PM 69.8 °F - 68.0 °F 94% 30.08 in 6.2 mi SE 4.6 mph - N/A Rain , Thunderstorm Light Rain
10:40 PM 69.8 °F - 69.8 °F 100% 30.08 in 6.2 mi SE 5.8 mph - N/A Rain Light Rain
10:55 PM 69.8 °F - 69.8 °F 100% 30.08 in 6.2 mi ESE 5.8 mph - N/A Rain , Thunderstorm Light Rain
10:58 PM 69.4 °F - 69.3 °F 99% 29.97 in 6.2 mi ESE 5.8 mph - 0.03 in Rain , Thunderstorm Light Rain
11:03 PM 69.8 °F - 69.8 °F 100% 30.08 in 6.2 mi ESE 3.5 mph - N/A Rain Light Rain
11:08 PM 69.8 °F - 69.8 °F 100% 30.08 in 6.2 mi SE 2.3 mph - N/A   Light Drizzle
11:18 PM 69.8 °F - 69.8 °F 100% 30.07 in 6.2 mi East 2.3 mph - N/A   Overcast
11:23 PM 69.8 °F - 69.8 °F 100% 30.07 in 6.2 mi Calm Calm - N/A   Overcast
11:58 PM 68.7 °F - 68.4 °F 99% 29.95 in 6.2 mi SSE 3.5 mph - 0.00 in   Mostly Cloudy